Back to catalog

CZ-4 DEB

AliveSSO
NORAD 28072·DEBRIS·🇨🇳 China

Launched Oct 14, 1999 from Taiyuan Satellite Launch Center

Loading…

Next Passes (next 24 hours)

TLE

FreshSource: Space-Track

Epoch: Sep 14, 2026, 10:29 UTC

1 28072U 99057NC  26257.43712956  .00000831  00000-0  22584-3 0  9994
2 28072  98.5540 323.2551 0089287 111.8775 261.8794 14.47904183232349

Track CZ-4 DEB in real time with AllMySat

Download on the App Store